Погода в Лиффорде

Ирландия     54°49′58″N   7°28′54″W
темп.,
°C
ветер,
м/с
пор.,
м/с
влажн.,
%
обл.,
%
осадки,
мм/ч
давл.,
гПа
погр.,
м
12 августа, пт
пт1201:00+12св11940 0.0 102310
04:00+11ссв11930 0.0 102310
07:00+12ссв11910 0.0 102211
10:00+19вюв11680 0.0 1022322
13:00+24вюв12520 0.0 1020986
16:00+26в22440 0.0 10191662
19:00+24вюв34640 0.0 1019299
22:00+17с11910 0.0 102011
13 августа, сб
сб1301:00+14ссв11930 0.0 101911
04:00+13ссв11924 0.0 101810
07:00+14ссв11903 0.0 101811
10:00+20ссв126365 0.0 1017302
13:00+24всв22491 0.0 1016846
16:00+26всв22480 0.0 10151398
19:00+24в34650 0.0 1014299
22:00+17св11895 0.1 101411
14 августа, вс
вс1401:00+15ссв11933 0.1 101411
04:00+14ссв1193100 0.0 101211
07:00+15сз119099 0.0 101114
10:00+20с12728 0.0 1010331
13:00+24ссв2160100 0.0 1009990
16:00+23ссз3267100 0.6 1008737
19:00+15ссз2597100 2.9 1008176
22:00+15ссв1197100 0.5 100735
15 августа, пн
пн1501:00+13з1197100 0.5 100626
04:00+13ссз1197100 0.0 100514
07:00+13ссз129794 0.0 100584
10:00+16ссз338556 0.0 1005556
13:00+18с4472100 0.1 1005955
16:00+17с3575100 0.0 1006737
19:00+16ссз5781100 0.1 1007655
22:00+13с499498 0.0 1008468
16 августа, вт
вт1601:00+14с61085100 0.1 1009686
04:00+13ссз5109088 0.1 1010688
07:00+13с5982100 0.1 1011845
10:00+14с587392 0.0 1012896
13:00+16с67605 0.0 10131196
16:00+17с675817 0.0 10131339
19:00+15ссз57761 0.1 1014934
22:00+13с5878100 0.1 1016871